Time,TemperatureF,DewpointF,PressureIn,WindDirection,WindDirectionDegrees,WindSpeedMPH,WindSpeedGustMPH,Humidity,HourlyPrecipIn,Conditions,Clouds,dailyrainin,SoftwareType,DateUTC
2013-01-06 00:00:00,33.7,29.7,30.07,WSW,238,2.2,6.9,85,0.00,CLR,,0.01,WeatherDisplay:10.37,2013-01-06 05:00:00,
2013-01-06 00:03:00,33.7,29.7,30.08,SSW,207,2.6,5.8,85,0.00,RA,,0.00,WeatherDisplay:10.37,2013-01-06 05:03:00,
2013-01-06 00:06:00,33.7,29.7,30.07,SSW,210,3.6,9.2,85,0.00,RA,,0.00,WeatherDisplay:10.37,2013-01-06 05:06:00,
2013-01-06 00:11:00,33.8,29.8,30.07,SSW,209,2.9,5.0,85,0.00,CLR,,0.00,WeatherDisplay:10.37,2013-01-06 05:11:00,
2013-01-06 00:16:00,33.8,29.8,30.07,SW,222,3.1,5.8,85,0.00,CLR,,0.00,WeatherDisplay:10.37,2013-01-06 05:16:00,
2013-01-06 00:21:00,33.9,29.9,30.07,SW,217,4.5,11.5,85,0.00,CLR,,0.00,WeatherDisplay:10.37,2013-01-06 05:21:00,
2013-01-06 00:26:00,33.9,29.9,30.06,SSW,198,3.8,5.8,85,0.00,CLR,,0.00,WeatherDisplay:10.37,2013-01-06 05:26:00,
2013-01-06 00:31:00,34.0,30.0,30.06,SW,217,1.8,3.5,85,0.00,CLR,,0.00,WeatherDisplay:10.37,2013-01-06 05:31:00,
2013-01-06 00:36:00,34.0,30.0,30.06,SSW,205,3.2,5.8,85,0.00,CLR,,0.00,WeatherDisplay:10.37,2013-01-06 05:36:00,
2013-01-06 00:41:00,34.1,30.1,30.06,SW,232,5.6,11.5,85,0.00,CLR,,0.00,WeatherDisplay:10.37,2013-01-06 05:41:00,
2013-01-06 00:46:00,34.1,30.1,30.06,SW,214,3.7,11.5,85,0.00,CLR,,0.00,WeatherDisplay:10.37,2013-01-06 05:46:00,
2013-01-06 00:51:00,34.0,30.0,30.05,SSW,201,3.4,6.9,85,0.00,CLR,,0.00,WeatherDisplay:10.37,2013-01-06 05:51:00,
2013-01-06 00:56:00,34.0,30.0,30.05,WSW,238,3.5,7.0,85,0.00,CLR,,0.00,WeatherDisplay:10.37,2013-01-06 05:56:00,
2013-01-06 01:01:00,34.1,30.4,30.05,South,188,3.8,6.9,86,0.00,CLR,,0.00,WeatherDisplay:10.37,2013-01-06 06:01:00,
2013-01-06 01:06:00,34.2,30.4,30.05,SSW,213,2.5,4.6,86,0.00,CLR,,0.00,WeatherDisplay:10.37,2013-01-06 06:06:00,
2013-01-06 01:11:00,34.1,30.4,30.04,SW,223,3.5,5.8,86,0.00,CLR,,0.00,WeatherDisplay:10.37,2013-01-06 06:11:00,
2013-01-06 01:16:00,34.1,30.4,30.04,SW,229,4.3,9.2,86,0.00,CLR,,0.00,WeatherDisplay:10.37,2013-01-06 06:16:00,
2013-01-06 01:21:00,34.1,30.6,30.04,SSW,205,1.8,5.8,87,0.00,CLR,,0.00,WeatherDisplay:10.37,2013-01-06 06:21:00,
2013-01-06 01:26:00,34.2,30.7,30.03,SW,216,1.4,5.8,87,0.00,CLR,,0.00,WeatherDisplay:10.37,2013-01-06 06:26:00,
2013-01-06 01:31:00,34.2,30.7,30.03,SSW,207,2.2,5.8,87,0.00,CLR,,0.00,WeatherDisplay:10.37,2013-01-06 06:31:00,
2013-01-06 01:36:00,34.3,30.8,30.03,SW,232,3.2,5.8,87,0.00,CLR,,0.00,WeatherDisplay:10.37,2013-01-06 06:36:00,
2013-01-06 01:41:00,34.2,30.7,30.03,SW,222,2.6,5.8,87,0.00,CLR,,0.00,WeatherDisplay:10.37,2013-01-06 06:41:00,
2013-01-06 01:46:00,34.3,30.8,30.03,SW,221,0.0,0.0,87,0.00,CLR,,0.00,WeatherDisplay:10.37,2013-01-06 06:46:00,
2013-01-06 01:51:00,34.4,30.9,30.02,SW,215,1.7,4.6,87,0.00,CLR,,0.00,WeatherDisplay:10.37,2013-01-06 06:51:00,
2013-01-06 01:56:00,34.4,30.9,30.02,SW,225,2.4,4.6,87,0.00,CLR,,0.00,WeatherDisplay:10.37,2013-01-06 06:56:00,
2013-01-06 02:01:00,34.4,30.9,30.02,SSW,209,2.0,4.6,87,0.00,CLR,,0.00,WeatherDisplay:10.37,2013-01-06 07:01:00,
2013-01-06 02:06:00,34.4,30.9,30.02,SW,232,1.2,6.0,87,0.00,CLR,,0.00,WeatherDisplay:10.37,2013-01-06 07:06:00,
2013-01-06 02:11:00,34.4,30.6,30.02,SW,215,1.9,3.5,86,0.00,CLR,,0.00,WeatherDisplay:10.37,2013-01-06 07:11:00,
2013-01-06 02:16:00,34.4,30.6,30.02,SW,223,2.5,5.8,86,0.00,CLR,,0.00,WeatherDisplay:10.37,2013-01-06 07:16:00,
2013-01-06 02:21:00,34.4,30.6,30.02,SW,229,1.5,5.8,86,0.00,CLR,,0.00,WeatherDisplay:10.37,2013-01-06 07:21:00,
2013-01-06 02:26:00,34.5,30.7,30.02,SSW,207,2.0,5.8,86,0.00,CLR,,0.00,WeatherDisplay:10.37,2013-01-06 07:26:00,
2013-01-06 02:31:00,34.5,30.7,30.02,SW,218,0.9,3.5,86,0.00,CLR,,0.00,WeatherDisplay:10.37,2013-01-06 07:31:00,
2013-01-06 02:36:00,34.5,30.7,30.01,SSW,205,3.0,5.8,86,0.00,CLR,,0.00,WeatherDisplay:10.37,2013-01-06 07:36:00,
2013-01-06 02:41:00,34.5,30.7,30.02,SSW,213,0.0,3.5,86,0.00,CLR,,0.00,WeatherDisplay:10.37,2013-01-06 07:41:00,
2013-01-06 02:46:00,34.5,30.7,30.01,South,188,2.6,5.8,86,0.00,CLR,,0.00,WeatherDisplay:10.37,2013-01-06 07:46:00,
2013-01-06 02:51:00,34.6,30.8,30.01,SSW,209,2.5,4.6,86,0.00,CLR,,0.00,WeatherDisplay:10.37,2013-01-06 07:51:00,
2013-01-06 02:56:00,34.8,30.8,30.01,WSW,241,4.0,5.8,85,0.00,CLR,,0.00,WeatherDisplay:10.37,2013-01-06 07:56:00,
2013-01-06 03:01:00,34.8,30.8,30.01,SSW,213,0.8,3.5,85,0.00,CLR,,0.00,WeatherDisplay:10.37,2013-01-06 08:01:00,
2013-01-06 03:06:00,34.8,30.8,30.01,SSW,207,4.8,11.5,85,0.00,CLR,,0.00,WeatherDisplay:10.37,2013-01-06 08:06:00,
2013-01-06 03:11:00,35.0,30.9,30.01,SSW,207,2.7,4.6,85,0.00,CLR,,0.00,WeatherDisplay:10.37,2013-01-06 08:11:00,
2013-01-06 03:16:00,35.0,30.7,30.01,SSW,195,3.9,6.9,84,0.00,CLR,,0.00,WeatherDisplay:10.37,2013-01-06 08:16:00,
2013-01-06 03:21:00,35.0,30.7,30.00,SW,234,4.3,9.2,84,0.00,CLR,,0.00,WeatherDisplay:10.37,2013-01-06 08:21:00,
2013-01-06 03:26:00,35.1,30.8,30.01,SSW,209,3.1,4.6,84,0.00,CLR,,0.00,WeatherDisplay:10.37,2013-01-06 08:26:00,
2013-01-06 03:31:00,35.1,30.8,30.01,SSW,206,2.4,6.9,84,0.00,CLR,,0.00,WeatherDisplay:10.37,2013-01-06 08:31:00,
2013-01-06 03:36:00,35.0,30.7,30.01,SW,232,3.4,11.5,84,0.00,CLR,,0.00,WeatherDisplay:10.37,2013-01-06 08:36:00,
2013-01-06 03:41:00,35.0,30.7,30.01,SSW,206,2.4,4.6,84,0.00,CLR,,0.00,WeatherDisplay:10.37,2013-01-06 08:41:00,
2013-01-06 03:46:00,35.0,30.7,30.00,SW,231,1.0,5.0,84,0.00,CLR,,0.00,WeatherDisplay:10.37,2013-01-06 08:46:00,
2013-01-06 03:51:00,34.9,30.6,30.00,SW,229,0.5,2.3,84,0.00,CLR,,0.00,WeatherDisplay:10.37,2013-01-06 08:51:00,
2013-01-06 03:56:00,34.9,30.6,30.00,SW,229,2.3,5.8,84,0.00,CLR,,0.00,WeatherDisplay:10.37,2013-01-06 08:56:00,
2013-01-06 04:01:00,34.9,30.6,30.00,SSW,208,0.0,3.5,84,0.00,CLR,,0.00,WeatherDisplay:10.37,2013-01-06 09:01:00,
2013-01-06 04:06:00,34.8,30.8,29.99,SW,226,0.1,2.3,85,0.00,CLR,,0.00,WeatherDisplay:10.37,2013-01-06 09:06:00,
2013-01-06 04:11:00,34.8,30.8,29.99,SW,236,0.7,3.5,85,0.00,CLR,,0.00,WeatherDisplay:10.37,2013-01-06 09:11:00,
2013-01-06 04:16:00,34.9,30.8,29.99,SW,221,0.5,2.3,85,0.00,CLR,,0.00,WeatherDisplay:10.37,2013-01-06 09:16:00,
2013-01-06 04:21:00,35.0,30.7,29.99,SW,224,1.5,3.5,84,0.00,CLR,,0.00,WeatherDisplay:10.37,2013-01-06 09:21:00,
2013-01-06 04:26:00,35.0,30.7,29.99,SW,228,0.0,0.0,84,0.00,CLR,,0.00,WeatherDisplay:10.37,2013-01-06 09:26:00,
2013-01-06 04:31:00,35.0,30.7,29.99,SSW,207,0.4,4.6,84,0.00,CLR,,0.00,WeatherDisplay:10.37,2013-01-06 09:31:00,
2013-01-06 04:36:00,35.1,30.8,29.98,SW,223,1.3,3.5,84,0.00,CLR,,0.00,WeatherDisplay:10.37,2013-01-06 09:36:00,
2013-01-06 04:41:00,35.1,30.8,29.98,SW,225,3.0,3.5,84,0.00,CLR,,0.00,WeatherDisplay:10.37,2013-01-06 09:41:00,
2013-01-06 04:46:00,35.2,30.9,29.99,SW,214,0.0,0.0,84,0.00,CLR,,0.00,WeatherDisplay:10.37,2013-01-06 09:46:00,
2013-01-06 04:51:00,35.2,30.9,29.98,SW,226,3.3,6.9,84,0.00,CLR,,0.00,WeatherDisplay:10.37,2013-01-06 09:51:00,
2013-01-06 04:56:00,35.3,30.9,29.98,SW,218,1.3,5.0,84,0.00,CLR,,0.00,WeatherDisplay:10.37,2013-01-06 09:56:00,
2013-01-06 05:01:00,35.3,30.9,29.98,SW,228,3.2,10.4,84,0.00,CLR,,0.00,WeatherDisplay:10.37,2013-01-06 10:01:00,
2013-01-06 05:06:00,35.4,31.0,29.98,SW,228,4.2,9.2,84,0.00,CLR,,0.00,WeatherDisplay:10.37,2013-01-06 10:06:00,
2013-01-06 05:11:00,35.4,31.0,29.98,SW,235,2.0,4.6,84,0.00,CLR,,0.00,WeatherDisplay:10.37,2013-01-06 10:11:00,
2013-01-06 05:16:00,35.4,31.0,29.97,SW,232,3.2,4.6,84,0.00,CLR,,0.00,WeatherDisplay:10.37,2013-01-06 10:16:00,
2013-01-06 05:21:00,35.4,31.0,29.97,SW,233,3.5,12.7,84,0.00,CLR,,0.00,WeatherDisplay:10.37,2013-01-06 10:21:00,
2013-01-06 05:26:00,35.5,31.1,29.97,West,261,4.9,9.2,84,0.00,CLR,,0.00,WeatherDisplay:10.37,2013-01-06 10:26:00,
2013-01-06 05:31:00,35.5,31.1,29.97,SW,224,3.1,8.1,84,0.00,CLR,,0.00,WeatherDisplay:10.37,2013-01-06 10:31:00,
2013-01-06 05:36:00,35.5,31.1,29.97,SW,226,2.8,6.9,84,0.00,CLR,,0.00,WeatherDisplay:10.37,2013-01-06 10:36:00,
2013-01-06 05:41:00,35.5,31.1,29.97,SW,236,3.4,9.2,84,0.00,CLR,,0.00,WeatherDisplay:10.37,2013-01-06 10:41:00,
2013-01-06 05:46:00,35.4,31.0,29.97,SW,226,3.4,5.8,84,0.00,CLR,,0.00,WeatherDisplay:10.37,2013-01-06 10:46:00,
2013-01-06 05:51:00,35.4,31.0,29.97,SW,233,3.9,6.9,84,0.00,CLR,,0.00,WeatherDisplay:10.37,2013-01-06 10:51:00,
2013-01-06 05:56:00,35.4,31.0,29.97,SW,228,2.7,6.9,84,0.00,CLR,,0.00,WeatherDisplay:10.37,2013-01-06 10:56:00,
2013-01-06 06:01:00,35.4,31.0,29.97,WSW,245,0.9,5.8,84,0.00,CLR,,0.00,WeatherDisplay:10.37,2013-01-06 11:01:00,
2013-01-06 06:06:00,35.4,31.0,29.97,WSW,239,1.5,10.4,84,0.00,CLR,,0.00,WeatherDisplay:10.37,2013-01-06 11:06:00,
2013-01-06 06:11:00,35.3,31.2,29.97,SW,234,4.2,9.2,85,0.00,CLR,,0.00,WeatherDisplay:10.37,2013-01-06 11:11:00,
2013-01-06 06:16:00,35.3,31.2,29.97,WSW,246,2.7,10.4,85,0.00,CLR,,0.00,WeatherDisplay:10.37,2013-01-06 11:16:00,
2013-01-06 06:21:00,35.3,31.2,29.97,SW,228,5.7,11.5,85,0.00,CLR,,0.00,WeatherDisplay:10.37,2013-01-06 11:21:00,
2013-01-06 06:26:00,35.2,31.1,29.97,WSW,242,1.6,5.8,85,0.00,CLR,,0.00,WeatherDisplay:10.37,2013-01-06 11:26:00,
2013-01-06 06:31:00,35.2,31.1,29.97,SW,234,3.0,6.9,85,0.00,CLR,,0.00,WeatherDisplay:10.37,2013-01-06 11:31:00,
2013-01-06 06:36:00,35.2,31.1,29.97,SW,228,4.4,9.0,85,0.00,CLR,,0.00,WeatherDisplay:10.37,2013-01-06 11:36:00,
2013-01-06 06:41:00,35.2,31.1,29.97,WSW,237,2.2,4.0,85,0.00,CLR,,0.00,WeatherDisplay:10.37,2013-01-06 11:41:00,
2013-01-06 06:46:00,35.2,31.1,29.97,SW,232,2.2,4.6,85,0.00,CLR,,0.00,WeatherDisplay:10.37,2013-01-06 11:46:00,
2013-01-06 06:51:00,35.2,31.1,29.97,SW,225,2.9,4.6,85,0.00,CLR,,0.00,WeatherDisplay:10.37,2013-01-06 11:51:00,
2013-01-06 06:56:00,35.2,31.4,29.97,WSW,237,4.6,6.9,86,0.00,CLR,,0.00,WeatherDisplay:10.37,2013-01-06 11:56:00,
2013-01-06 07:01:00,35.2,31.4,29.97,SW,235,3.2,4.6,86,0.00,CLR,,0.00,WeatherDisplay:10.37,2013-01-06 12:01:00,
2013-01-06 07:06:00,35.1,31.3,29.97,SW,225,0.9,4.6,86,0.00,CLR,,0.00,WeatherDisplay:10.37,2013-01-06 12:06:00,
2013-01-06 07:11:00,35.1,31.3,29.97,SW,227,1.1,4.6,86,0.00,CLR,,0.00,WeatherDisplay:10.37,2013-01-06 12:11:00,
2013-01-06 07:16:00,35.1,31.3,29.97,SW,236,3.9,5.8,86,0.00,CLR,,0.00,WeatherDisplay:10.37,2013-01-06 12:16:00,
2013-01-06 07:21:00,35.1,31.3,29.97,SW,227,0.9,3.5,86,0.00,CLR,,0.00,WeatherDisplay:10.37,2013-01-06 12:21:00,
2013-01-06 07:26:00,35.1,31.3,29.97,WSW,255,2.7,5.8,86,0.00,CLR,,0.00,WeatherDisplay:10.37,2013-01-06 12:26:00,
2013-01-06 07:31:00,35.1,31.3,29.97,WSW,250,2.0,5.8,86,0.00,CLR,,0.00,WeatherDisplay:10.37,2013-01-06 12:31:00,
2013-01-06 07:36:00,35.1,31.3,29.97,WSW,237,0.0,2.3,86,0.00,CLR,,0.00,WeatherDisplay:10.37,2013-01-06 12:36:00,
2013-01-06 07:41:00,35.1,31.3,29.97,SW,232,1.4,4.0,86,0.00,CLR,,0.00,WeatherDisplay:10.37,2013-01-06 12:41:00,
2013-01-06 07:46:00,35.1,31.3,29.97,SW,231,0.5,3.5,86,0.00,CLR,,0.00,WeatherDisplay:10.37,2013-01-06 12:46:00,
2013-01-06 07:51:00,35.1,31.3,29.97,West,261,2.4,6.9,86,0.00,CLR,,0.00,WeatherDisplay:10.37,2013-01-06 12:51:00,
2013-01-06 07:56:00,35.2,31.4,29.97,WSW,253,2.5,5.8,86,0.00,CLR,,0.00,WeatherDisplay:10.37,2013-01-06 12:56:00,
2013-01-06 08:01:00,35.2,31.4,29.97,WSW,238,4.5,8.1,86,0.00,CLR,,0.00,WeatherDisplay:10.37,2013-01-06 13:01:00,
2013-01-06 08:06:00,35.2,31.4,29.97,West,261,1.2,3.5,86,0.00,CLR,,0.00,WeatherDisplay:10.37,2013-01-06 13:06:00,
2013-01-06 08:11:00,35.2,31.4,29.97,WSW,238,4.1,5.8,86,0.00,CLR,,0.00,WeatherDisplay:10.37,2013-01-06 13:11:00,
2013-01-06 08:16:00,35.2,31.4,29.97,WSW,252,2.3,4.6,86,0.00,CLR,,0.00,WeatherDisplay:10.37,2013-01-06 13:16:00,
2013-01-06 08:21:00,35.2,31.4,29.98,SW,236,4.2,6.9,86,0.00,CLR,,0.00,WeatherDisplay:10.37,2013-01-06 13:21:00,
2013-01-06 08:26:00,35.2,31.4,29.98,SW,230,3.0,8.0,86,0.00,CLR,,0.00,WeatherDisplay:10.37,2013-01-06 13:26:00,
2013-01-06 08:31:00,35.1,31.6,29.98,WSW,245,3.7,9.2,87,0.00,CLR,,0.00,WeatherDisplay:10.37,2013-01-06 13:31:00,
2013-01-06 08:36:00,35.1,31.6,29.98,WSW,250,4.6,12.7,87,0.00,CLR,,0.00,WeatherDisplay:10.37,2013-01-06 13:36:00,
2013-01-06 08:41:00,35.1,31.6,29.98,WSW,253,2.6,4.6,87,0.00,CLR,,0.00,WeatherDisplay:10.37,2013-01-06 13:41:00,
2013-01-06 08:46:00,35.0,31.5,29.98,West,267,3.1,8.1,87,0.00,CLR,,0.00,WeatherDisplay:10.37,2013-01-06 13:46:00,
2013-01-06 08:51:00,34.8,31.6,29.99,West,260,4.9,15.0,88,0.00,CLR,,0.00,WeatherDisplay:10.37,2013-01-06 13:51:00,
2013-01-06 08:56:00,34.6,31.7,29.99,SW,232,4.8,6.9,89,0.00,CLR,,0.00,WeatherDisplay:10.37,2013-01-06 13:56:00,
2013-01-06 09:01:00,34.4,31.5,29.99,West,277,2.6,5.8,89,0.00,CLR,,0.00,WeatherDisplay:10.37,2013-01-06 14:01:00,
2013-01-06 09:06:00,34.4,31.8,29.99,WSW,258,4.2,13.8,90,0.00,CLR,,0.00,WeatherDisplay:10.37,2013-01-06 14:06:00,
2013-01-06 09:11:00,34.4,31.8,29.99,WSW,248,0.8,4.6,90,0.00,CLR,,0.00,WeatherDisplay:10.37,2013-01-06 14:11:00,
2013-01-06 09:16:00,34.3,31.7,29.99,WSW,240,1.8,4.6,90,0.00,CLR,,0.00,WeatherDisplay:10.37,2013-01-06 14:16:00,
2013-01-06 09:21:00,34.2,31.6,29.99,SW,225,2.3,4.6,90,0.00,CLR,,0.00,WeatherDisplay:10.37,2013-01-06 14:21:00,
2013-01-06 09:26:00,34.1,31.5,30.00,WSW,257,4.6,6.9,90,0.00,CLR,,0.00,WeatherDisplay:10.37,2013-01-06 14:26:00,
2013-01-06 09:31:00,33.9,31.3,29.99,WSW,250,2.4,9.2,90,0.00,CLR,,0.00,WeatherDisplay:10.37,2013-01-06 14:31:00,
2013-01-06 09:36:00,33.8,31.2,30.00,WSW,244,2.4,11.5,90,0.00,CLR,,0.00,WeatherDisplay:10.37,2013-01-06 14:36:00,
2013-01-06 09:41:00,33.5,30.6,30.00,WSW,252,6.1,13.8,89,0.00,CLR,,0.00,WeatherDisplay:10.37,2013-01-06 14:41:00,
2013-01-06 09:46:00,33.5,30.6,30.00,WSW,245,0.8,3.5,89,0.00,CLR,,0.00,WeatherDisplay:10.37,2013-01-06 14:46:00,
2013-01-06 09:51:00,33.4,30.2,30.00,WSW,251,8.7,13.8,88,0.00,CLR,,0.00,WeatherDisplay:10.37,2013-01-06 14:51:00,
2013-01-06 09:56:00,33.3,29.8,30.01,WSW,257,1.7,5.8,87,0.00,CLR,,0.00,WeatherDisplay:10.37,2013-01-06 14:56:00,
2013-01-06 10:01:00,33.2,29.8,30.01,West,281,3.1,5.8,87,0.00,CLR,,0.00,WeatherDisplay:10.37,2013-01-06 15:01:00,
2013-01-06 10:06:00,33.0,30.9,30.02,NW,313,3.8,6.0,92,0.00,CLR,,0.00,WeatherDisplay:10.37,2013-01-06 15:06:00,
2013-01-06 10:11:00,32.4,28.4,30.02,WNW,296,2.4,5.0,85,0.00,CLR,,0.00,WeatherDisplay:10.37,2013-01-06 15:11:00,
2013-01-06 10:16:00,31.8,27.8,30.02,WNW,296,4.4,10.0,85,0.00,CLR,,0.00,WeatherDisplay:10.37,2013-01-06 15:16:00,
2013-01-06 10:21:00,31.3,27.3,30.03,WNW,286,4.8,15.0,85,0.00,CLR,,0.00,WeatherDisplay:10.37,2013-01-06 15:21:00,
2013-01-06 10:26:00,30.8,26.5,30.03,West,266,4.3,9.2,84,0.00,CLR,,0.00,WeatherDisplay:10.37,2013-01-06 15:26:00,
2013-01-06 10:31:00,30.3,26.0,30.03,WSW,250,4.6,12.7,84,0.00,CLR,,0.00,WeatherDisplay:10.37,2013-01-06 15:31:00,
2013-01-06 10:36:00,30.1,25.8,30.03,West,266,2.5,5.8,84,0.00,CLR,,0.00,WeatherDisplay:10.37,2013-01-06 15:36:00,
2013-01-06 10:41:00,29.9,25.7,30.04,West,272,4.5,9.2,84,0.00,CLR,,0.00,WeatherDisplay:10.37,2013-01-06 15:41:00,
2013-01-06 10:46:00,29.6,25.4,30.04,West,271,5.9,15.0,84,0.00,CLR,,0.00,WeatherDisplay:10.37,2013-01-06 15:46:00,
2013-01-06 10:51:00,29.3,24.8,30.04,West,273,2.1,4.6,83,0.00,CLR,,0.00,WeatherDisplay:10.37,2013-01-06 15:51:00,
2013-01-06 10:56:00,28.9,24.4,30.04,NW,305,8.9,19.0,83,0.00,CLR,,0.00,WeatherDisplay:10.37,2013-01-06 15:56:00,
2013-01-06 11:01:00,28.3,23.5,30.05,NW,316,5.7,16.1,82,0.00,CLR,,0.00,WeatherDisplay:10.37,2013-01-06 16:01:00,
2013-01-06 11:06:00,27.9,23.4,30.05,West,271,6.3,17.3,83,0.00,CLR,,0.00,WeatherDisplay:10.37,2013-01-06 16:06:00,
2013-01-06 11:11:00,27.6,23.1,30.05,WNW,292,4.8,13.8,83,0.00,CLR,,0.00,WeatherDisplay:10.37,2013-01-06 16:11:00,
2013-01-06 11:16:00,27.4,22.9,30.06,WNW,286,6.3,13.8,83,0.00,CLR,,0.00,WeatherDisplay:10.37,2013-01-06 16:16:00,
2013-01-06 11:21:00,27.2,22.7,30.06,West,281,6.8,19.6,83,0.00,CLR,,0.00,WeatherDisplay:10.37,2013-01-06 16:21:00,
2013-01-06 11:26:00,27.1,22.6,30.06,West,279,4.5,15.0,83,0.00,CLR,,0.00,WeatherDisplay:10.37,2013-01-06 16:26:00,
2013-01-06 11:31:00,27.1,22.9,30.06,WNW,294,4.8,11.5,84,0.00,CLR,,0.00,WeatherDisplay:10.37,2013-01-06 16:31:00,
2013-01-06 11:36:00,27.0,22.5,30.06,West,277,1.6,3.5,83,0.00,CLR,,0.00,WeatherDisplay:10.37,2013-01-06 16:36:00,
2013-01-06 11:41:00,27.0,22.5,30.06,WNW,296,0.0,3.5,83,0.00,CLR,,0.00,WeatherDisplay:10.37,2013-01-06 16:41:00,
2013-01-06 11:46:00,27.0,22.5,30.06,West,271,2.5,4.6,83,0.00,CLR,,0.00,WeatherDisplay:10.37,2013-01-06 16:46:00,
2013-01-06 11:51:00,27.0,22.5,30.06,West,269,3.0,5.8,83,0.00,CLR,,0.00,WeatherDisplay:10.37,2013-01-06 16:51:00,
2013-01-06 11:56:00,26.9,22.4,30.06,WNW,298,4.3,8.1,83,0.00,CLR,,0.00,WeatherDisplay:10.37,2013-01-06 16:56:00,
2013-01-06 12:01:00,26.7,22.2,30.06,WSW,257,1.7,6.9,83,0.00,CLR,,0.00,WeatherDisplay:10.37,2013-01-06 17:01:00,
2013-01-06 12:06:00,26.2,21.7,30.06,West,279,3.5,15.0,83,0.00,CLR,,0.00,WeatherDisplay:10.37,2013-01-06 17:06:00,
2013-01-06 12:11:00,26.1,21.6,30.07,West,273,3.7,10.4,83,0.00,CLR,,0.00,WeatherDisplay:10.37,2013-01-06 17:11:00,
2013-01-06 12:16:00,26.0,21.5,30.07,WNW,287,6.7,12.7,83,0.00,CLR,,0.00,WeatherDisplay:10.37,2013-01-06 17:16:00,
2013-01-06 12:21:00,25.7,21.3,30.07,West,265,5.1,10.4,83,0.00,CLR,,0.00,WeatherDisplay:10.37,2013-01-06 17:21:00,
2013-01-06 12:26:00,25.6,21.2,30.08,West,266,1.7,4.6,83,0.00,CLR,,0.00,WeatherDisplay:10.37,2013-01-06 17:26:00,
2013-01-06 12:31:00,25.5,21.3,30.07,West,272,0.0,1.0,84,0.00,CLR,,0.00,WeatherDisplay:10.37,2013-01-06 17:31:00,
2013-01-06 12:36:00,25.5,21.3,30.07,WNW,284,4.2,11.5,84,0.00,CLR,,0.00,WeatherDisplay:10.37,2013-01-06 17:36:00,
2013-01-06 12:41:00,25.6,21.4,30.07,WSW,246,2.9,8.1,84,0.00,CLR,,0.00,WeatherDisplay:10.37,2013-01-06 17:41:00,
2013-01-06 12:46:00,25.7,21.5,30.07,West,262,2.3,4.6,84,0.00,CLR,,0.00,WeatherDisplay:10.37,2013-01-06 17:46:00,
2013-01-06 12:51:00,25.6,21.4,30.06,WSW,253,2.9,4.6,84,0.00,CLR,,0.00,WeatherDisplay:10.37,2013-01-06 17:51:00,
2013-01-06 12:56:00,25.6,21.4,30.07,West,265,2.0,4.6,84,0.00,CLR,,0.00,WeatherDisplay:10.37,2013-01-06 17:56:00,
2013-01-06 13:01:00,25.6,21.4,30.07,West,262,1.8,4.6,84,0.00,CLR,,0.00,WeatherDisplay:10.37,2013-01-06 18:01:00,
2013-01-06 13:06:00,25.6,21.4,30.06,WSW,245,0.6,5.8,84,0.00,CLR,,0.00,WeatherDisplay:10.37,2013-01-06 18:06:00,
2013-01-06 13:11:00,25.7,21.5,30.07,WNW,298,1.9,5.8,84,0.00,CLR,,0.00,WeatherDisplay:10.37,2013-01-06 18:11:00,
2013-01-06 13:16:00,25.7,21.3,30.07,West,263,0.3,3.5,83,0.00,CLR,,0.00,WeatherDisplay:10.37,2013-01-06 18:16:00,
2013-01-06 13:21:00,25.8,21.3,30.07,WNW,287,4.2,9.2,83,0.00,CLR,,0.00,WeatherDisplay:10.37,2013-01-06 18:21:00,
2013-01-06 13:26:00,25.7,21.3,30.07,WSW,255,2.8,6.9,83,0.00,CLR,,0.00,WeatherDisplay:10.37,2013-01-06 18:26:00,
2013-01-06 13:31:00,25.8,21.3,30.08,WNW,285,0.2,3.0,83,0.00,CLR,,0.00,WeatherDisplay:10.37,2013-01-06 18:31:00,
2013-01-06 13:36:00,25.9,21.4,30.08,West,274,0.0,0.0,83,0.00,CLR,,0.00,WeatherDisplay:10.37,2013-01-06 18:36:00,
2013-01-06 13:41:00,26.1,21.6,30.08,West,278,2.5,5.8,83,0.00,CLR,,0.00,WeatherDisplay:10.37,2013-01-06 18:41:00,
2013-01-06 13:46:00,26.1,21.6,30.08,West,278,1.1,3.5,83,0.00,CLR,,0.00,WeatherDisplay:10.37,2013-01-06 18:46:00,
2013-01-06 13:51:00,26.1,21.6,30.08,West,261,3.7,5.8,83,0.00,CLR,,0.00,WeatherDisplay:10.37,2013-01-06 18:51:00,
2013-01-06 13:56:00,25.9,21.2,30.08,WSW,241,2.0,4.6,82,0.00,CLR,,0.00,WeatherDisplay:10.37,2013-01-06 18:56:00,
2013-01-06 14:01:00,25.8,21.3,30.08,West,274,2.2,3.5,83,0.00,CLR,,0.00,WeatherDisplay:10.37,2013-01-06 19:01:00,
2013-01-06 14:06:00,25.9,21.4,30.08,WSW,239,1.1,3.5,83,0.00,CLR,,0.00,WeatherDisplay:10.37,2013-01-06 19:06:00,
2013-01-06 14:11:00,25.9,21.4,30.08,WSW,252,2.8,5.8,83,0.00,CLR,,0.00,WeatherDisplay:10.37,2013-01-06 19:11:00,
2013-01-06 14:16:00,25.8,21.3,30.09,WNW,292,1.7,6.9,83,0.00,CLR,,0.00,WeatherDisplay:10.37,2013-01-06 19:16:00,
2013-01-06 14:21:00,25.7,21.3,30.09,WSW,252,0.7,3.5,83,0.00,CLR,,0.00,WeatherDisplay:10.37,2013-01-06 19:21:00,
2013-01-06 14:26:00,25.8,21.3,30.10,WSW,240,1.6,4.6,83,0.00,CLR,,0.00,WeatherDisplay:10.37,2013-01-06 19:26:00,
2013-01-06 14:31:00,25.8,21.3,30.10,West,259,0.6,2.3,83,0.00,CLR,,0.00,WeatherDisplay:10.37,2013-01-06 19:31:00,
2013-01-06 14:36:00,25.8,21.3,30.10,West,267,2.5,6.9,83,0.00,CLR,,0.00,WeatherDisplay:10.37,2013-01-06 19:36:00,
2013-01-06 14:46:00,25.8,21.6,30.11,WSW,250,1.6,4.6,84,0.00,CLR,,0.00,WeatherDisplay:10.37,2013-01-06 19:46:00,
2013-01-06 14:52:00,25.8,21.3,30.12,West,267,0.9,4.6,83,0.00,CLR,,0.00,WeatherDisplay:10.37,2013-01-06 19:52:00,
2013-01-06 15:00:00,25.9,21.4,30.12,West,268,2.7,3.5,83,0.00,CLR,,0.00,WeatherDisplay:10.37,2013-01-06 20:00:00,
2013-01-06 15:05:00,26.0,21.5,30.12,West,266,3.0,6.0,83,0.00,CLR,CLR,0.00,WeatherDisplay:10.37,2013-01-06 20:05:00,
2013-01-06 15:11:00,26.1,21.9,30.13,West,276,3.7,5.8,84,0.00,CLR,,0.00,WeatherDisplay:10.37,2013-01-06 20:11:00,
2013-01-06 15:13:00,26.2,21.7,30.12,West,273,0.9,7.0,83,0.00,CLR,,0.00,WeatherDisplay:10.37,2013-01-06 20:13:00,
2013-01-06 15:18:00,26.2,21.7,30.13,WNW,284,2.5,3.5,83,0.00,CLR,,0.00,WeatherDisplay:10.37,2013-01-06 20:18:00,
2013-01-06 15:23:00,26.3,21.8,30.13,West,279,2.5,12.7,83,0.00,CLR,,0.00,WeatherDisplay:10.37,2013-01-06 20:23:00,
2013-01-06 15:28:00,26.4,21.9,30.13,West,265,0.5,0.0,83,0.00,CLR,,0.00,WeatherDisplay:10.37,2013-01-06 20:28:00,
2013-01-06 15:33:00,26.5,22.0,30.14,West,261,0.0,3.5,83,0.00,CLR,,0.00,WeatherDisplay:10.37,2013-01-06 20:33:00,
2013-01-06 15:38:00,26.6,22.1,30.14,SW,232,2.4,9.0,83,0.00,CLR,,0.00,WeatherDisplay:10.37,2013-01-06 20:38:00,
2013-01-06 15:43:00,26.7,22.2,30.15,West,269,0.8,4.0,83,0.00,CLR,,0.00,WeatherDisplay:10.37,2013-01-06 20:43:00,
2013-01-06 15:48:00,26.9,22.4,30.15,West,260,1.0,2.3,83,0.00,CLR,,0.00,WeatherDisplay:10.37,2013-01-06 20:48:00,
2013-01-06 15:53:00,27.0,22.5,30.15,West,270,0.1,5.8,83,0.00,CLR,,0.00,WeatherDisplay:10.37,2013-01-06 20:53:00,
2013-01-06 15:58:00,27.1,22.6,30.16,WSW,246,0.2,2.3,83,0.00,CLR,,0.00,WeatherDisplay:10.37,2013-01-06 20:58:00,
2013-01-06 16:00:00,27.2,22.7,30.16,WSW,250,2.7,5.0,83,0.00,CLR,,0.00,WeatherDisplay:10.37,2013-01-06 21:00:00,
2013-01-06 16:05:00,27.3,22.5,30.16,WSW,244,2.2,5.0,82,0.00,CLR,,0.00,WeatherDisplay:10.37,2013-01-06 21:05:00,
2013-01-06 16:10:00,27.4,22.6,30.17,West,259,1.8,3.5,82,0.00,CLR,,0.00,WeatherDisplay:10.37,2013-01-06 21:10:00,
2013-01-06 16:15:00,27.5,23.0,30.17,West,265,1.6,4.6,83,0.00,CLR,,0.00,WeatherDisplay:10.37,2013-01-06 21:15:00,
2013-01-06 16:20:00,27.6,22.8,30.17,West,259,1.0,3.5,82,0.00,CLR,,0.00,WeatherDisplay:10.37,2013-01-06 21:20:00,
2013-01-06 16:25:00,27.6,22.8,30.17,West,261,2.0,3.5,82,0.00,CLR,,0.00,WeatherDisplay:10.37,2013-01-06 21:25:00,
2013-01-06 16:30:00,27.7,22.9,30.17,WSW,254,2.3,5.8,82,0.00,CLR,,0.00,WeatherDisplay:10.37,2013-01-06 21:30:00,
2013-01-06 16:35:00,27.8,23.0,30.17,West,263,2.0,3.0,82,0.00,CLR,,0.00,WeatherDisplay:10.37,2013-01-06 21:35:00,
2013-01-06 16:40:00,27.9,23.1,30.18,WSW,245,1.6,3.5,82,0.00,CLR,,0.00,WeatherDisplay:10.37,2013-01-06 21:40:00,
2013-01-06 16:45:00,27.9,23.1,30.18,WNW,290,1.0,5.8,82,0.00,CLR,,0.00,WeatherDisplay:10.37,2013-01-06 21:45:00,
2013-01-06 16:50:00,27.9,23.1,30.18,West,259,2.3,4.6,82,0.00,CLR,,0.00,WeatherDisplay:10.37,2013-01-06 21:50:00,
2013-01-06 16:55:00,27.9,23.1,30.18,WSW,257,0.1,3.5,82,0.00,CLR,,0.00,WeatherDisplay:10.37,2013-01-06 21:55:00,
2013-01-06 17:00:00,27.9,23.1,30.18,West,270,0.9,4.6,82,0.00,CLR,,0.00,WeatherDisplay:10.37,2013-01-06 22:00:00,
2013-01-06 17:05:00,27.9,23.1,30.19,WSW,246,3.5,6.9,82,0.00,CLR,,0.00,WeatherDisplay:10.37,2013-01-06 22:05:00,
2013-01-06 17:10:00,27.9,23.1,30.19,West,262,3.6,11.5,82,0.00,CLR,,0.00,WeatherDisplay:10.37,2013-01-06 22:10:00,
2013-01-06 17:15:00,27.9,23.1,30.19,West,267,3.3,6.9,82,0.00,CLR,,0.00,WeatherDisplay:10.37,2013-01-06 22:15:00,
2013-01-06 17:20:00,28.0,23.2,30.20,West,275,3.3,10.4,82,0.00,CLR,,0.00,WeatherDisplay:10.37,2013-01-06 22:20:00,
2013-01-06 17:25:00,28.0,23.5,30.20,WSW,251,3.0,6.9,83,0.00,CLR,,0.00,WeatherDisplay:10.37,2013-01-06 22:25:00,
2013-01-06 17:30:00,28.1,23.6,30.20,WSW,254,0.0,2.3,83,0.00,CLR,,0.00,WeatherDisplay:10.37,2013-01-06 22:30:00,
2013-01-06 17:35:00,28.2,23.7,30.21,WSW,257,1.2,6.9,83,0.00,CLR,,0.00,WeatherDisplay:10.37,2013-01-06 22:35:00,
2013-01-06 17:40:00,28.2,23.7,30.21,West,263,2.0,6.9,83,0.00,CLR,,0.00,WeatherDisplay:10.37,2013-01-06 22:40:00,
2013-01-06 17:45:00,28.3,23.8,30.21,West,267,2.2,10.4,83,0.00,CLR,,0.00,WeatherDisplay:10.37,2013-01-06 22:45:00,
2013-01-06 17:50:00,28.4,23.9,30.21,WSW,250,0.5,3.5,83,0.00,CLR,,0.00,WeatherDisplay:10.37,2013-01-06 22:50:00,
2013-01-06 17:55:00,28.5,24.0,30.21,West,261,1.6,3.5,83,0.00,CLR,,0.00,WeatherDisplay:10.37,2013-01-06 22:55:00,
2013-01-06 18:00:00,28.6,24.1,30.22,WSW,239,2.0,6.9,83,0.00,CLR,,0.00,WeatherDisplay:10.37,2013-01-06 23:00:00,
2013-01-06 18:05:00,28.8,24.3,30.22,West,279,0.6,4.6,83,0.00,CLR,,0.00,WeatherDisplay:10.37,2013-01-06 23:05:00,
2013-01-06 18:10:00,28.8,24.3,30.22,West,266,2.4,8.1,83,0.00,CLR,,0.00,WeatherDisplay:10.37,2013-01-06 23:10:00,
2013-01-06 18:15:00,28.9,24.4,30.23,WSW,256,1.8,6.0,83,0.00,CLR,,0.00,WeatherDisplay:10.37,2013-01-06 23:15:00,
2013-01-06 18:20:00,29.0,24.5,30.23,West,277,2.3,4.6,83,0.00,CLR,,0.00,WeatherDisplay:10.37,2013-01-06 23:20:00,
2013-01-06 18:25:00,29.1,24.6,30.23,WNW,290,2.4,9.2,83,0.00,CLR,,0.00,WeatherDisplay:10.37,2013-01-06 23:25:00,
2013-01-06 18:30:00,29.2,24.7,30.23,West,264,1.5,5.8,83,0.00,CLR,,0.00,WeatherDisplay:10.37,2013-01-06 23:30:00,
2013-01-06 18:35:00,29.3,24.8,30.24,West,265,0.7,9.2,83,0.00,CLR,,0.00,WeatherDisplay:10.37,2013-01-06 23:35:00,
2013-01-06 18:40:00,29.4,24.9,30.24,West,259,2.7,3.5,83,0.00,CLR,,0.00,WeatherDisplay:10.37,2013-01-06 23:40:00,
2013-01-06 18:45:00,29.4,24.9,30.24,West,263,2.0,7.0,83,0.00,CLR,,0.00,WeatherDisplay:10.37,2013-01-06 23:45:00,
2013-01-06 18:50:00,29.6,24.8,30.25,West,271,0.5,3.5,82,0.00,CLR,,0.00,WeatherDisplay:10.37,2013-01-06 23:50:00,
2013-01-06 18:55:00,29.6,24.8,30.25,West,272,2.4,7.0,82,0.00,CLR,,0.00,WeatherDisplay:10.37,2013-01-06 23:55:00,
2013-01-06 19:00:00,29.6,24.8,30.25,West,265,4.2,9.2,82,0.00,CLR,,0.00,WeatherDisplay:10.37,2013-01-07 00:00:00,
2013-01-06 19:05:00,29.5,24.7,30.25,SW,233,1.5,5.0,82,0.00,CLR,,0.00,WeatherDisplay:10.37,2013-01-07 00:05:00,
2013-01-06 19:10:00,29.6,24.8,30.26,West,269,5.0,16.0,82,0.00,CLR,CLR,0.00,WeatherDisplay:10.37,2013-01-07 00:10:00,
2013-01-06 19:15:00,29.6,24.8,30.26,WSW,256,2.3,4.6,82,0.00,CLR,,0.00,WeatherDisplay:10.37,2013-01-07 00:15:00,
2013-01-06 19:20:00,29.6,24.8,30.26,West,265,3.0,12.0,82,0.00,CLR,CLR,0.00,WeatherDisplay:10.37,2013-01-07 00:20:00,
2013-01-06 19:25:00,29.7,24.9,30.26,West,271,1.4,3.5,82,0.00,CLR,,0.00,WeatherDisplay:10.37,2013-01-07 00:25:00,
2013-01-06 19:30:00,29.8,25.0,30.26,West,269,0.0,5.0,82,0.00,CLR,CLR,0.00,WeatherDisplay:10.37,2013-01-07 00:30:00,
2013-01-06 19:35:00,29.8,25.0,30.26,West,262,1.0,9.0,82,0.00,CLR,CLR,0.00,WeatherDisplay:10.37,2013-01-07 00:35:00,
2013-01-06 19:40:00,29.9,25.1,30.27,WSW,252,0.9,5.8,82,0.00,CLR,,0.00,WeatherDisplay:10.37,2013-01-07 00:40:00,
2013-01-06 19:45:00,30.0,25.2,30.27,WSW,248,2.3,4.6,82,0.00,CLR,,0.00,WeatherDisplay:10.37,2013-01-07 00:45:00,
2013-01-06 19:50:00,30.0,25.2,30.28,WSW,238,3.6,3.6,82,0.00,CLR,,0.00,WeatherDisplay:10.37,2013-01-07 00:50:00,
2013-01-06 19:55:00,30.0,25.2,30.28,WSW,252,1.6,4.6,82,0.00,CLR,,0.00,WeatherDisplay:10.37,2013-01-07 00:55:00,
2013-01-06 20:00:00,30.0,25.5,30.28,WSW,245,0.1,3.5,83,0.00,CLR,,0.00,WeatherDisplay:10.37,2013-01-07 01:00:00,
2013-01-06 20:05:00,30.0,25.2,30.28,West,261,2.7,4.6,82,0.00,CLR,,0.00,WeatherDisplay:10.37,2013-01-07 01:05:00,
2013-01-06 20:10:00,30.0,25.2,30.29,West,267,0.0,3.5,82,0.00,CLR,,0.00,WeatherDisplay:10.37,2013-01-07 01:10:00,
2013-01-06 20:15:00,30.0,25.5,30.29,West,271,2.6,5.0,83,0.00,CLR,,0.00,WeatherDisplay:10.37,2013-01-07 01:15:00,
2013-01-06 20:20:00,30.1,25.6,30.29,West,270,1.3,1.3,83,0.00,CLR,,0.00,WeatherDisplay:10.37,2013-01-07 01:20:00,
2013-01-06 20:25:00,30.1,25.6,30.29,West,266,0.8,3.5,83,0.00,CLR,,0.00,WeatherDisplay:10.37,2013-01-07 01:25:00,
2013-01-06 20:30:00,30.1,25.6,30.30,WSW,252,0.1,3.5,83,0.00,CLR,,0.00,WeatherDisplay:10.37,2013-01-07 01:30:00,
2013-01-06 20:35:00,30.1,25.6,30.29,West,261,0.0,1.1,83,0.00,CLR,,0.00,WeatherDisplay:10.37,2013-01-07 01:35:00,
2013-01-06 20:40:00,30.1,25.6,30.30,West,277,0.0,3.5,83,0.00,CLR,,0.00,WeatherDisplay:10.37,2013-01-07 01:40:00,
2013-01-06 20:45:00,30.1,25.6,30.30,WSW,257,1.0,7.0,83,0.00,CLR,CLR,0.00,WeatherDisplay:10.37,2013-01-07 01:45:00,
2013-01-06 20:50:00,30.2,25.7,30.31,WSW,250,0.2,3.5,83,0.00,CLR,,0.00,WeatherDisplay:10.37,2013-01-07 01:50:00,
2013-01-06 20:55:00,30.3,25.8,30.31,WSW,241,2.2,2.3,83,0.00,CLR,,0.00,WeatherDisplay:10.37,2013-01-07 01:55:00,
2013-01-06 21:00:00,30.3,25.8,30.31,West,261,1.3,3.0,83,0.00,CLR,,0.00,WeatherDisplay:10.37,2013-01-07 02:00:00,
2013-01-06 21:05:00,30.3,26.0,30.31,West,267,0.0,0.0,84,0.00,CLR,,0.00,WeatherDisplay:10.37,2013-01-07 02:05:00,
2013-01-06 21:10:00,30.3,26.0,30.31,WSW,255,0.0,2.0,84,0.00,CLR,,0.00,WeatherDisplay:10.37,2013-01-07 02:10:00,
2013-01-06 21:15:00,30.3,26.0,30.31,WSW,250,0.0,6.0,84,0.00,CLR,CLR,0.00,WeatherDisplay:10.37,2013-01-07 02:15:00,
2013-01-06 21:20:00,30.3,26.0,30.31,WSW,252,1.1,0.0,84,0.00,CLR,,0.00,WeatherDisplay:10.37,2013-01-07 02:20:00,
2013-01-06 21:25:00,30.3,26.0,30.31,West,265,0.2,5.8,84,0.00,CLR,,0.00,WeatherDisplay:10.37,2013-01-07 02:25:00,
2013-01-06 21:30:00,30.3,26.0,30.32,WSW,253,0.7,2.3,84,0.00,CLR,,0.00,WeatherDisplay:10.37,2013-01-07 02:30:00,
2013-01-06 21:35:00,30.3,26.0,30.31,West,261,0.5,3.5,84,0.00,CLR,,0.00,WeatherDisplay:10.37,2013-01-07 02:35:00,
2013-01-06 21:40:00,30.3,26.0,30.32,West,262,0.0,2.3,84,0.00,CLR,,0.00,WeatherDisplay:10.37,2013-01-07 02:40:00,
2013-01-06 21:45:00,30.2,25.7,30.32,West,265,1.2,0.0,83,0.00,CLR,,0.00,WeatherDisplay:10.37,2013-01-07 02:45:00,
2013-01-06 21:50:00,30.2,25.7,30.32,WSW,250,0.3,3.5,83,0.00,CLR,,0.00,WeatherDisplay:10.37,2013-01-07 02:50:00,
2013-01-06 21:55:00,30.2,25.9,30.33,WSW,248,0.0,0.0,84,0.00,CLR,,0.00,WeatherDisplay:10.37,2013-01-07 02:55:00,
2013-01-06 22:00:00,30.1,25.8,30.33,WSW,250,0.0,4.6,84,0.00,CLR,,0.00,WeatherDisplay:10.37,2013-01-07 03:00:00,
2013-01-06 22:05:00,30.1,25.8,30.33,West,259,0.0,0.0,84,0.00,CLR,,0.00,WeatherDisplay:10.37,2013-01-07 03:05:00,
2013-01-06 22:10:00,30.1,25.8,30.33,SW,223,1.1,2.0,84,0.00,CLR,,0.00,WeatherDisplay:10.37,2013-01-07 03:10:00,
2013-01-06 22:15:00,30.1,25.8,30.33,West,262,0.0,6.0,84,0.00,CLR,CLR,0.00,WeatherDisplay:10.37,2013-01-07 03:15:00,
2013-01-06 22:20:00,30.1,25.8,30.34,West,270,0.7,3.5,84,0.00,CLR,,0.00,WeatherDisplay:10.37,2013-01-07 03:20:00,
2013-01-06 22:25:00,30.1,25.6,30.34,West,261,0.0,4.6,83,0.00,CLR,,0.00,WeatherDisplay:10.37,2013-01-07 03:25:00,
2013-01-06 22:30:00,30.1,25.6,30.34,SW,232,1.4,3.5,83,0.00,CLR,,0.00,WeatherDisplay:10.37,2013-01-07 03:30:00,
2013-01-06 22:35:00,30.1,25.6,30.34,West,265,0.0,0.0,83,0.00,CLR,,0.00,WeatherDisplay:10.37,2013-01-07 03:35:00,
2013-01-06 22:40:00,30.1,25.6,30.34,West,260,0.4,0.0,83,0.00,CLR,,0.00,WeatherDisplay:10.37,2013-01-07 03:40:00,
2013-01-06 22:45:00,30.1,25.6,30.34,West,263,0.9,3.5,83,0.00,CLR,,0.00,WeatherDisplay:10.37,2013-01-07 03:45:00,
2013-01-06 22:50:00,30.0,25.8,30.34,West,271,1.3,3.5,84,0.00,CLR,,0.00,WeatherDisplay:10.37,2013-01-07 03:50:00,
2013-01-06 22:55:00,29.9,25.4,30.34,West,267,0.0,0.0,83,0.00,CLR,,0.00,WeatherDisplay:10.37,2013-01-07 03:55:00,
2013-01-06 23:00:00,29.9,25.4,30.34,West,265,0.0,0.0,83,0.00,CLR,,0.00,WeatherDisplay:10.37,2013-01-07 04:00:00,
2013-01-06 23:05:00,29.9,25.4,30.34,West,264,0.3,2.3,83,0.00,CLR,,0.00,WeatherDisplay:10.37,2013-01-07 04:05:00,
2013-01-06 23:10:00,29.9,25.4,30.34,West,263,0.0,4.0,83,0.00,CLR,CLR,0.00,WeatherDisplay:10.37,2013-01-07 04:10:00,
2013-01-06 23:15:00,29.9,25.4,30.35,WSW,250,0.0,0.0,83,0.00,CLR,,0.00,WeatherDisplay:10.37,2013-01-07 04:15:00,
2013-01-06 23:20:00,29.8,25.3,30.35,WSW,258,1.0,5.0,83,0.00,CLR,CLR,0.00,WeatherDisplay:10.37,2013-01-07 04:20:00,
2013-01-06 23:25:00,29.8,25.3,30.34,West,263,1.1,3.5,83,0.00,CLR,,0.00,WeatherDisplay:10.37,2013-01-07 04:25:00,
2013-01-06 23:30:00,29.7,25.2,30.34,West,263,0.0,2.0,83,0.00,CLR,CLR,0.00,WeatherDisplay:10.37,2013-01-07 04:30:00,
2013-01-06 23:35:00,29.7,25.5,30.35,WSW,246,0.2,2.3,84,0.00,CLR,,0.00,WeatherDisplay:10.37,2013-01-07 04:35:00,
2013-01-06 23:40:00,29.6,25.4,30.35,WSW,248,0.0,0.0,84,0.00,CLR,,0.00,WeatherDisplay:10.37,2013-01-07 04:40:00,
2013-01-06 23:45:00,29.6,25.4,30.35,West,267,0.0,0.0,84,0.00,CLR,,0.00,WeatherDisplay:10.37,2013-01-07 04:45:00,
2013-01-06 23:50:00,29.5,25.3,30.35,West,264,0.0,2.0,84,0.00,CLR,CLR,0.00,WeatherDisplay:10.37,2013-01-07 04:50:00,
2013-01-06 23:55:00,29.5,25.3,30.35,West,267,0.0,0.0,84,0.00,CLR,CLR,0.00,WeatherDisplay:10.37,2013-01-07 04:55:00,